Location: Theydon Bois
(51.6750°N, 0.1050°E)
Time: 08:38:40
(UTC+01:00)

Daily predictions for brighter satellites

Satellite Brightness Start Highest point End
(mag) Time Altitude Azimuth Time Altitude Azimuth Time Altitude Azimuth
Cosmos 614 Rocket 4.0 20:47:29 10° NNW 20:52:38 82° ENE 20:57:46 10° SSE
ATLAS 3B R/B 3.3 20:46:52 10° NW 20:53:35 49° NNE 20:59:59 10° ESE
Cosmos 839 Rocket 4.4 20:48:22 10° S 20:54:05 41° ESE 20:59:58 10° NE
H-2A R/B 3.3 20:50:25 10° ESE 20:54:24 24° ENE 20:58:20 10° N
Cosmos 1741 Rocket 4.2 20:50:20 10° NNW 20:55:32 60° ENE 21:00:43 10° SE
Meteor 1-13 Rocket 4.4 20:51:35 10° N 20:57:34 78° ENE 21:03:32 10° SSE
SAR-Lupe-4 4.1 21:00:21 10° SE 21:03:45 42° ENE 21:07:11 10° N
Okean 2 Rocket 3.3 20:59:26 10° SSW 21:03:56 82° WNW 21:08:29 10° N
SPOT 5 3.9 21:00:36 10° SE 21:04:52 31° ENE 21:08:58 10° N
USA 186 3.7 21:02:59 10° SSW 21:06:04 33° W 21:09:11 10° NNW
EXPRESS MD2 4.5 21:06:23 10° S 21:08:54 22° SE 21:12:49 10° E
Envisat 3.8 21:05:58 10° S 21:10:56 54° W 21:15:57 10° NNW
S3M 4.1 21:05:02 10° N 21:11:18 87° W 21:17:36 10° S
Meteor 2-4 Rocket 3.7 21:05:50 10° N 21:11:20 72° ENE 21:16:56 10° SSE
ERS-1 Rocket 3.2 21:06:55 10° SSE 21:11:51 58° ENE 21:16:47 10° N
Cosmos 2360 Rocket 3.7 21:09:35 10° SE 21:12:49 16° E 21:16:03 10° ENE
Cosmos 1980 Rocket 2.2 21:07:35 10° SSW 21:13:12 84° ESE 21:18:50 10° NNE
Cosmos 2315 Rocket 4.4 21:08:51 10° N 21:14:51 47° ENE 21:20:51 10° SE
Meteor 1-29 3.7 21:11:55 10° NNE 21:15:05 32° E 21:18:11 10° SSE
Cosmos 1553 Rocket 4.2 21:08:58 10° NNW 21:15:12 77° W 21:21:18 10° S
Helios 1A 3.1 21:13:39 10° SSE 21:17:53 79° WSW 21:22:11 10° NNW
Cosmos 2056 Rocket 4.3 21:12:58 10° SW 21:18:02 58° WNW 21:23:14 10° NNE
SAR-Lupe-1 4.3 21:17:23 10° SSE 21:20:52 55° ENE 21:24:24 10° N
MetOp-B 4.3 21:16:36 10° SSE 21:21:52 61° ENE 21:27:09 10° N
BREEZE-M DEB (TANK) 2.8 21:20:54 10° SSW 21:22:37 16° SSE 21:23:00 15° SE
Okean 2 4.1 21:20:35 10° N 21:24:24 36° ENE 21:27:31 14° SE
ATLAS 2AS CENTAUR R/B 3.7 21:20:59 10° S 21:27:31 30° ESE 21:34:17 10° NE
ERBS 2.9 21:26:06 10° SSW 21:29:19 36° SE 21:32:33 10° ENE
Cosmos 2266 Rocket 4.0 21:23:25 10° S 21:29:19 58° E 21:35:15 10° NNE
NOAA 11 4.2 21:23:57 10° SSE 21:29:28 85° ENE 21:35:01 10° NNW
Cosmos 1697 Rocket 3.7 21:24:23 10° SW 21:29:53 52° NW 21:35:25 10° NNE
Cosmos 1607 4.1 21:26:35 10° NW 21:33:04 89° SW 21:38:43 14° SE
NOSS 3-1 (A) 3.5 21:27:39 10° SW 21:33:37 89° SE 21:40:29 10° NE
Cosmos 1850 Rocket 4.4 21:34:30 10° NNW 21:39:49 65° WSW 21:45:04 10° S
Meteor 1-11 Rocket 3.8 21:34:41 10° S 21:40:33 86° E 21:46:19 10° NNE
Cosmos 1452 Rocket 3.7 21:36:42 10° SSW 21:42:00 80° WNW 21:47:20 10° NNE
YAOGAN 6 4.0 21:39:13 10° SSW 21:42:32 36° W 21:45:50 10° NNW
Resurs 01 Rocket 4.3 21:42:34 10° SW 21:45:30 17° W 21:48:26 10° NW
CENTAUR R/B 4.2 21:39:37 10° NW 21:46:13 36° NNE 21:53:31 10° E
Okean 1-7 Rocket 3.6 21:42:30 10° N 21:46:58 67° ENE 21:50:29 16° SSE
Cosmos 1420 Rocket 3.9 21:42:14 10° SSW 21:47:25 84° ESE 21:52:38 10° NNE
YAOGAN 11 4.2 21:48:18 18° SSE 21:51:28 63° ENE 21:55:46 10° N
Landsat 7 4.4 21:49:51 19° SE 21:52:54 43° ENE 21:57:25 10° N
Okean 1 Rocket 3.0 21:50:29 10° S 21:54:48 71° E 21:59:12 10° NNE
SPOT 1/Viking Rocket 3.7 21:51:13 17° SSE 21:55:09 63° ENE 22:00:20 10° N
Cosmos 1300 Rocket 3.8 21:59:50 10° SSW 22:04:07 67° WNW 22:08:27 10° N
NOSS 3-1 (C) 4.3 21:58:22 10° WSW 22:04:19 57° NW 22:11:10 10° NE
Cosmos 1975 3.8 22:06:49 26° ESE 22:07:52 30° E 22:11:23 10° NNE
Terra 2.4 22:05:41 23° SE 22:08:13 43° ENE 22:12:44 10° N
ATLAS CENTAUR R/B 3.9 22:07:25 10° NNW 22:09:04 12° N 22:10:43 10° NE
USA 215 3.8 22:03:01 10° E 22:09:24 58° N 22:15:48 10° WNW
BREEZE-M (TANK) 4.2 21:53:08 10° W 22:10:27 69° SSW 22:13:25 23° ESE
NOSS 2-3 (C) 4.1 22:06:32 10° SSW 22:11:13 53° SE 22:16:50 10° NE
Cosmos 1025 Rocket 3.2 22:07:44 10° NNW 22:12:00 68° W 22:15:08 18° S
Cosmos 2278 Rocket 3.5 22:07:49 10° NNW 22:12:46 29° NE 22:16:39 15° E
CARTOSAT-1 4.1 22:10:57 26° SE 22:12:57 44° ENE 22:17:05 10° N
Helios 1B rocket 3.5 22:12:03 10° N 22:16:00 46° WNW 22:19:56 10° SW
IGS 5A 4.0 22:14:31 28° ESE 22:16:16 44° ENE 22:20:14 10° N
SeaSat 1 3.9 22:11:51 10° NNE 22:16:28 41° NW 22:21:03 10° WSW
Abrixas rocket 2.4 22:15:06 10° WSW 22:18:17 47° S 22:18:47 43° SSE
BREEZE-M DEB 3.6 22:09:18 10° W 22:18:18 57° SSW 22:19:49 32° SE
Cosmos 2263 Rocket 3.1 22:13:05 10° NW 22:18:27 43° WSW 22:22:55 14° S
USA 238 DEB 3.8 22:11:46 10° NW 22:18:53 87° SW 22:23:31 24° SE
USA 238 3.8 22:11:52 10° NW 22:18:59 87° SW 22:23:37 24° SE
USA 245 4.2 22:14:52 15° S 22:19:15 63° WSW 22:23:39 10° NNW
NOSS 3-2 (A) 4.1 22:12:13 10° NW 22:19:24 68° NE 22:25:03 21° ESE
Cosmos 2322 Rocket 2.3 22:14:46 10° SSW 22:20:29 84° WNW 22:26:14 10° NNE
ARGOS 3.7 22:18:36 14° S 22:23:10 55° W 22:28:28 10° NNW
Cosmos 1666 4.4 22:23:53 19° E 22:23:53 19° E 22:26:35 10° NE
Cosmos 1238 Rocket 4.1 22:18:23 10° N 22:25:09 83° E 22:29:42 22° SSE
H-2A R/B 3.0 22:24:56 26° ESE 22:26:30 35° ENE 22:30:30 10° N
Cosmos 1844 Rocket 2.8 22:21:58 10° NNW 22:27:40 66° NE 22:30:40 28° SE
SL-08 RB Rocket 4.3 22:25:01 18° S 22:28:15 55° W 22:32:44 10° NNW
Cosmos 1743 3.8 22:29:13 27° E 22:29:18 27° E 22:32:35 10° NNE
SL-16 R/B 2.4 22:23:56 10° SW 22:29:36 74° WNW 22:35:19 10° NNE
Cosmos 1536 4.3 22:26:41 10° SW 22:30:29 37° WNW 22:34:19 10° N
SL-8 R/B 4.0 22:28:35 10° W 22:33:13 50° SSW 22:34:50 35° SE
H-2A R/B 2.3 22:30:04 21° S 22:33:29 63° WSW 22:38:28 10° NNW
BREEZE-M DEB (TANK) 3.9 22:29:49 10° SW 22:34:03 63° SSE 22:50:39 10° ENE
Cosmos 2322 3.8 22:32:59 22° S 22:36:29 51° ESE 22:41:59 10° NE
Nadezhda 1 Rocket 4.1 22:35:24 10° N 22:41:40 68° ENE 22:44:54 30° SSE
SPOT 5 3.8 22:39:22 17° SSW 22:42:51 43° W 22:47:21 10° NNW
COSMOS 2428 3.4 22:41:44 31° SE 22:42:57 34° ESE 22:48:05 10° NE
Cosmos 1892 Rocket 3.7 22:38:55 10° NNW 22:43:22 71° W 22:45:22 32° S
Cosmos 1626 Rocket 4.0 22:39:53 10° N 22:44:05 47° ENE 22:45:08 38° ESE
Cosmos 2219 Rocket 3.4 22:44:06 23° ESE 22:44:08 23° ESE 22:48:26 10° NE
ATLAS 3B R/B 2.9 22:37:51 10° NW 22:44:31 59° SW 22:47:57 28° SSE
Cosmos 1244 Rocket 4.5 22:40:46 15° S 22:45:56 85° W 22:52:07 10° N
GP-B 3.4 22:44:47 10° N 22:49:09 50° E 22:50:07 42° SE
CZ-4C R/B 4.4 22:49:48 27° ENE 22:50:08 27° ENE 22:53:10 10° N
NOSS 2-3 (D) 4.0 22:45:58 10° SW 22:50:51 88° SE 22:56:48 10° NE
CZ-2C R/B 4.4 22:48:30 10° NE 22:51:48 16° E 22:52:06 16° E
Cosmos 1844 3.7 22:46:38 10° NNW 22:52:19 77° ENE 22:54:45 36° SE
Lacrosse 5 2.1 22:50:01 26° SSW 22:52:24 44° SE 22:57:13 10° ENE
ARGOS Delta rocket 4.1 22:50:52 10° NNE 22:55:11 45° E 22:55:54 42° SE
NOSS 3-2 (C) 4.0 22:48:26 10° NW 22:55:44 78° NE 23:00:21 28° SE
Cosmos 2360 Rocket 2.1 22:50:43 12° SSW 22:55:57 82° ESE 23:01:37 10° NNE
Cosmos 2333 Rocket 3.4 22:57:21 23° E 22:57:21 23° E 23:01:30 10° NE
Cosmos 1980 Rocket 4.5 22:53:16 10° W 22:57:54 26° NW 23:02:33 10° NNE
Molniya-1 4.2 23:00:42 10° WNW 23:02:50 47° W 23:02:50 47° W
Cosmos 1486 Rocket 4.3 22:59:00 10° NNW 23:04:10 58° WSW 23:06:13 35° S
Cosmos 1544 Rocket 3.5 23:03:41 40° SSW 23:05:17 85° W 23:09:48 10° N
ERBS 3.1 23:02:30 10° W 23:05:55 53° NNW 23:09:20 10° ENE
DMSP B5D2-2 4.1 23:01:02 10° NNE 23:06:19 85° WNW 23:09:15 27° SSW
Cosmos 2333 4.4 23:06:20 40° SE 23:07:32 47° ESE 23:12:55 10° NE
Cosmos 1437 Rocket 2.8 23:08:02 60° ESE 23:08:14 61° E 23:12:10 10° NNE
Cosmos 724 4.2 23:03:38 10° NW 23:09:36 88° SW 23:11:46 41° SE
DELTA 2 DEB (DPAF) 4.4 23:10:55 48° ESE 23:11:49 58° ENE 23:16:15 10° N
Cosmos 1302 Rocket 3.9 23:09:46 37° S 23:11:52 73° ESE 23:17:09 10° NNE
Cosmos 1500 4.3 23:11:28 24° SW 23:13:20 42° WNW 23:17:04 10° N
Cosmos 405 3.7 23:14:30 40° WSW 23:15:23 51° WNW 23:18:55 10° N
ATLAS CENTAUR R/B 4.2 22:57:58 10° WNW 23:16:00 67° N 23:21:05 15° E
ATLAS 2AS CENTAUR R/B 3.1 23:09:53 10° SW 23:17:48 88° NW 23:26:01 10° NE
Cosmos 1455 Rocket 3.2 23:16:52 42° SSW 23:18:18 73° W 23:22:48 10° N
Meteor 1-21 4.2 23:15:28 10° NNW 23:21:05 82° W 23:23:01 43° S
Meteor 1-12 Rocket 4.4 23:19:52 27° SSW 23:23:04 71° WNW 23:28:45 10° N
CZ-2C R/B 3.4 23:22:16 39° E 23:23:16 45° ENE 23:27:51 10° N
BREEZE M DEB (TANK) 3.5 23:18:49 10° W 23:22:34 38° WSW 23:22:34 38° WSW
Cosmos 2237 Rocket 3.4 23:24:44 26° E 23:24:44 26° E 23:28:54 10° NE
EXPRESS MD2 4.1 23:21:52 10° WSW 23:25:58 74° S 23:34:46 10° E
NOSS 3-4 (A) 4.2 23:28:17 33° ESE 23:28:17 33° ESE 23:33:47 10° NE
NOSS 3-4 (C) 4.2 23:28:26 32° ESE 23:28:26 32° ESE 23:33:54 10° ENE
Cosmos 968 Rocket 3.7 23:26:15 10° NNW 23:31:20 57° ENE 23:32:34 45° ESE
ALOS 2 3.4 23:35:22 36° E 23:35:54 37° ENE 23:39:58 10° N
Cosmos 1818 3.7 23:37:32 51° SE 23:37:43 52° ESE 23:43:00 10° NE
BREEZE-M DEB (TANK) 3.8 23:21:59 10° WSW 23:38:03 63° SSE 23:40:44 27° E
Cosmos 1354 Rocket 4.3 23:32:59 10° NNW 23:38:13 57° WSW 23:39:30 45° SSW
CENTAUR R/B 3.3 23:30:42 10° NW 23:38:14 67° NE 23:43:18 26° ESE
Cosmos 2297 4.3 23:33:52 10° NNW 23:39:21 48° NE 23:41:26 33° ESE
Cosmos 1707 4.0 23:36:10 10° N 23:39:24 30° ENE 23:39:24 30° ENE
Cosmos 1745 Rocket 4.2 23:36:38 28° SSW 23:39:58 65° WNW 23:46:07 10° N
Cosmos 1842 3.3 23:36:16 10° NNW 23:40:11 68° W 23:40:13 68° W
USA 81 4.0 23:37:58 10° N 23:43:18 86° W 23:44:29 55° S
COSMOS 2455 3.6 23:37:30 10° NNW 23:43:20 47° NE 23:46:19 27° E
Terra 3.2 23:44:34 24° SW 23:46:07 30° W 23:50:18 10° NNW
SL-24 R/B 4.3 23:42:29 10° N 23:47:33 83° E 23:48:17 65° S
ATLAS CENTAUR R/B 2.7 23:45:54 10° NNW 23:49:10 29° NE 23:49:56 26° ENE
DNEPR-1 R/B 4.0 23:46:02 10° NW 23:50:17 56° NE 23:51:10 47° E
USA 215 3.2 23:48:32 29° ESE 23:52:12 85° NNE 23:58:47 10° WNW
Cosmos 1378 4.4 23:49:27 10° N 23:52:27 32° NE 23:52:27 32° NE
